Precipitable_Water
0.73 0.73 0.73 0.68 0.67 0.70 0.72 0.73 0.75 0.78 0.79 0.73 0.70 0.71 0.74 0.77 0.74 0.71 0.68 0.63 0.63 0.60 0.57 0.56 0.63 0.65 0.62 0.46 0.37 0.49 0.51 0.54 0.51 0.45 0.37 0.39 0.37 0.39 0.33 0.33 0.35 0.26 0.25 0.28 0.28 0.33 0.26
0.72 0.74 0.72 0.67 0.67 0.69 0.73 0.73 0.75 0.79 0.75 0.70 0.70 0.73 0.76 0.77 0.74 0.70 0.67 0.62 0.60 0.57 0.55 0.63 0.67 0.72 0.54 0.34 0.50 0.51 0.51 0.50 0.51 0.47 0.44 0.45 0.40 0.43 0.38 0.34 0.28 0.25 0.24 0.24 0.24 0.22 0.20
0.73 0.74 0.70 0.65 0.67 0.69 0.72 0.73 0.77 0.77 0.72 0.70 0.72 0.74 0.76 0.75 0.72 0.69 0.65 0.61 0.58 0.55 0.61 0.67 0.74 0.71 0.52 0.38 0.52 0.51 0.48 0.49 0.50 0.47 0.42 0.47 0.45 0.40 0.35 0.31 0.25 0.25 0.21 0.15 0.20 0.19 0.15
0.71 0.71 0.68 0.65 0.66 0.69 0.72 0.75 0.78 0.74 0.71 0.72 0.74 0.73 0.72 0.71 0.69 0.65 0.61 0.58 0.58 0.62 0.66 0.70 0.78 0.66 0.40 0.46 0.51 0.46 0.44 0.46 0.47 0.51 0.46 0.42 0.45 0.38 0.29 0.32 0.26 0.22 0.18 0.15 0.18 0.18 0.19
0.70 0.68 0.66 0.64 0.66 0.68 0.72 0.77 0.76 0.71 0.73 0.74 0.75 0.71 0.71 0.70 0.65 0.61 0.59 0.61 0.63 0.66 0.71 0.75 0.64 0.56 0.36 0.45 0.39 0.41 0.44 0.40 0.42 0.46 0.44 0.41 0.41 0.32 0.28 0.24 0.20 0.18 0.15 0.22 0.25 0.30 0.28
0.70 0.69 0.66 0.64 0.67 0.69 0.73 0.76 0.74 0.72 0.74 0.75 0.72 0.69 0.67 0.64 0.61 0.60 0.64 0.67 0.71 0.70 0.68 0.70 0.67 0.39 0.40 0.32 0.31 0.39 0.40 0.39 0.39 0.38 0.32 0.33 0.33 0.28 0.27 0.21 0.15 0.16 0.21 0.22 0.23 0.26 0.29
0.71 0.68 0.64 0.63 0.68 0.70 0.75 0.74 0.74 0.72 0.76 0.75 0.69 0.69 0.62 0.60 0.62 0.66 0.66 0.61 0.46 0.39 0.49 0.28 0.34 0.39 0.38 0.40 0.32 0.32 0.34 0.34 0.38 0.34 0.26 0.31 0.27 0.23 0.22 0.24 0.27 0.26 0.23 0.24 0.27 0.30 0.30
0.71 0.69 0.64 0.66 0.69 0.72 0.76 0.73 0.71 0.74 0.76 0.71 0.66 0.67 0.62 0.66 0.70 0.72 0.70 0.59 0.58 0.55 0.29 0.41 0.43 0.40 0.41 0.38 0.23 0.24 0.32 0.28 0.27 0.23 0.22 0.25 0.23 0.27 0.33 0.35 0.32 0.31 0.26 0.26 0.29 0.35 0.32
0.71 0.70 0.64 0.67 0.69 0.74 0.76 0.72 0.70 0.74 0.73 0.66 0.64 0.67 0.72 0.75 0.73 0.72 0.64 0.58 0.78 0.65 0.39 0.35 0.38 0.36 0.36 0.35 0.24 0.24 0.30 0.29 0.25 0.25 0.26 0.24 0.27 0.33 0.36 0.34 0.31 0.30 0.27 0.28 0.28 0.34 0.37
0.71 0.69 0.64 0.68 0.70 0.75 0.75 0.70 0.70 0.74 0.70 0.63 0.64 0.70 0.76 0.74 0.65 0.67 0.58 0.72 0.80 0.68 0.28 0.26 0.29 0.33 0.37 0.34 0.25 0.36 0.42 0.39 0.34 0.28 0.28 0.31 0.35 0.31 0.31 0.29 0.32 0.27 0.35 0.32 0.31 0.29 0.23
0.73 0.69 0.66 0.68 0.71 0.76 0.73 0.69 0.70 0.73 0.67 0.63 0.69 0.74 0.74 0.75 0.71 0.63 0.77 0.81 0.78 0.60 0.12 0.25 0.27 0.40 0.38 0.32 0.27 0.33 0.49 0.44 0.33 0.33 0.33 0.31 0.33 0.31 0.28 0.26 0.30 0.28 0.34 0.32 0.33 0.29 0.28
0.74 0.67 0.69 0.68 0.72 0.76 0.72 0.68 0.69 0.72 0.65 0.65 0.74 0.78 0.74 0.76 0.78 0.82 0.87 0.68 0.56 0.29 0.13 0.21 0.28 0.26 0.29 0.30 0.27 0.30 0.38 0.45 0.42 0.35 0.36 0.34 0.38 0.35 0.32 0.34 0.33 0.35 0.33 0.33 0.32 0.28 0.20
0.71 0.68 0.70 0.68 0.73 0.76 0.72 0.68 0.69 0.71 0.64 0.68 0.73 0.75 0.71 0.88 0.70 0.90 0.76 0.47 0.26 0.25 0.27 0.19 0.20 0.22 0.27 0.24 0.25 0.21 0.29 0.32 0.29 0.24 0.24 0.28 0.27 0.33 0.36 0.28 0.32 0.29 0.26 0.20 0.18 0.18 0.19
0.67 0.70 0.71 0.68 0.74 0.76 0.72 0.68 0.69 0.68 0.65 0.67 0.73 0.76 0.76 0.84 0.94 0.78 0.58 0.34 0.24 0.26 0.23 0.23 0.20 0.22 0.21 0.25 0.26 0.24 0.26 0.25 0.33 0.31 0.26 0.24 0.17 0.28 0.36 0.33 0.26 0.27 0.27 0.20 0.15 0.17 0.22
0.67 0.71 0.70 0.70 0.75 0.75 0.72 0.68 0.67 0.66 0.66 0.69 0.75 0.74 0.73 0.73 0.84 0.67 0.43 0.26 0.29 0.27 0.27 0.22 0.27 0.24 0.26 0.31 0.29 0.28 0.24 0.26 0.34 0.37 0.29 0.27 0.24 0.28 0.36 0.37 0.33 0.23 0.18 0.29 0.22 0.27 0.23
0.68 0.72 0.70 0.72 0.73 0.74 0.71 0.69 0.67 0.64 0.66 0.69 0.60 0.61 0.55 0.75 0.66 0.53 0.36 0.39 0.38 0.37 0.32 0.30 0.22 0.28 0.23 0.29 0.29 0.31 0.31 0.34 0.33 0.41 0.44 0.38 0.22 0.28 0.32 0.34 0.33 0.26 0.28 0.16 0.17 0.11 0.11
0.70 0.71 0.72 0.72 0.72 0.74 0.70 0.70 0.66 0.63 0.65 0.69 0.58 0.39 0.54 0.73 0.52 0.40 0.26 0.41 0.40 0.40 0.37 0.28 0.27 0.28 0.32 0.28 0.33 0.31 0.33 0.36 0.35 0.40 0.45 0.40 0.26 0.26 0.32 0.27 0.23 0.24 0.18 0.19 0.20 0.18 0.11
0.74 0.72 0.72 0.71 0.72 0.74 0.72 0.71 0.66 0.63 0.64 0.64 0.50 0.29 0.69 0.56 0.29 0.33 0.32 0.47 0.47 0.36 0.39 0.34 0.36 0.34 0.36 0.36 0.32 0.32 0.30 0.33 0.42 0.40 0.34 0.39 0.30 0.21 0.23 0.29 0.30 0.26 0.21 0.19 0.12 0.14 0.19
0.73 0.73 0.71 0.72 0.72 0.74 0.73 0.73 0.66 0.64 0.64 0.57 0.39 0.46 0.75 0.49 0.21 0.22 0.38 0.44 0.42 0.35 0.34 0.34 0.34 0.41 0.45 0.40 0.34 0.40 0.39 0.48 0.41 0.35 0.32 0.34 0.24 0.17 0.20 0.23 0.27 0.23 0.25 0.24 0.22 0.21 0.17
0.75 0.72 0.71 0.72 0.73 0.74 0.75 0.74 0.67 0.64 0.64 0.59 0.42 0.34 0.47 0.47 0.32 0.22 0.31 0.38 0.35 0.42 0.37 0.39 0.37 0.44 0.44 0.42 0.46 0.39 0.40 0.43 0.37 0.37 0.41 0.39 0.25 0.17 0.13 0.17 0.22 0.18 0.22 0.25 0.22 0.16 0.17
0.75 0.72 0.71 0.72 0.75 0.75 0.76 0.75 0.69 0.63 0.67 0.62 0.48 0.39 0.38 0.27 0.26 0.27 0.35 0.41 0.34 0.32 0.38 0.37 0.34 0.38 0.39 0.36 0.38 0.37 0.41 0.36 0.32 0.34 0.37 0.31 0.18 0.22 0.21 0.22 0.20 0.20 0.20 0.22 0.20 0.22 0.17
0.75 0.71 0.71 0.73 0.74 0.77 0.77 0.78 0.69 0.63 0.69 0.56 0.46 0.42 0.41 0.28 0.26 0.31 0.38 0.40 0.35 0.35 0.34 0.27 0.26 0.35 0.40 0.35 0.36 0.34 0.37 0.31 0.24 0.28 0.29 0.32 0.19 0.21 0.18 0.22 0.20 0.17 0.20 0.21 0.22 0.22 0.22
0.73 0.71 0.74 0.74 0.75 0.78 0.80 0.80 0.69 0.63 0.67 0.52 0.70 0.72 0.42 0.37 0.22 0.27 0.36 0.40 0.36 0.39 0.40 0.38 0.35 0.36 0.36 0.44 0.49 0.49 0.46 0.42 0.37 0.26 0.24 0.23 0.21 0.16 0.11 0.20 0.20 0.13 0.15 0.19 0.20 0.24 0.24
0.72 0.74 0.76 0.75 0.76 0.80 0.84 0.80 0.68 0.63 0.63 0.65 0.81 0.69 0.43 0.30 0.19 0.31 0.45 0.44 0.41 0.41 0.35 0.40 0.42 0.38 0.48 0.61 0.60 0.56 0.50 0.47 0.45 0.38 0.35 0.24 0.20 0.19 0.14 0.18 0.10 0.16 0.26 0.27 0.24 0.27 0.31
0.73 0.75 0.76 0.75 0.77 0.82 0.86 0.78 0.68 0.64 0.66 0.78 0.85 0.74 0.47 0.28 0.32 0.36 0.42 0.42 0.47 0.49 0.46 0.45 0.47 0.54 0.59 0.50 0.43 0.38 0.36 0.35 0.38 0.42 0.34 0.33 0.23 0.18 0.14 0.14 0.16 0.18 0.25 0.24 0.23 0.23 0.34
0.75 0.77 0.76 0.76 0.78 0.85 0.86 0.77 0.72 0.68 0.74 0.89 0.93 0.89 0.63 0.42 0.45 0.53 0.49 0.50 0.42 0.42 0.44 0.49 0.59 0.63 0.57 0.43 0.36 0.27 0.24 0.25 0.23 0.29 0.41 0.32 0.29 0.20 0.19 0.13 0.10 0.14 0.27 0.35 0.34 0.20 0.36
0.80 0.79 0.77 0.76 0.79 0.83 0.84 0.78 0.78 0.78 0.96 1.00 0.88 1.00 0.67 0.52 0.65 0.60 0.48 0.47 0.51 0.46 0.42 0.50 0.52 0.53 0.56 0.40 0.31 0.28 0.25 0.29 0.19 0.19 0.21 0.25 0.24 0.17 0.17 0.15 0.16 0.22 0.33 0.38 0.21 0.18 0.36
0.82 0.80 0.78 0.77 0.79 0.79 0.82 0.77 0.76 0.80 0.85 0.90 0.83 0.94 0.68 0.55 0.64 0.69 0.63 0.51 0.51 0.50 0.40 0.50 0.49 0.52 0.47 0.37 0.31 0.28 0.26 0.27 0.24 0.26 0.23 0.20 0.18 0.17 0.20 0.16 0.13 0.29 0.34 0.25 0.30 0.36 0.41
0.83 0.81 0.79 0.78 0.77 0.77 0.77 0.80 0.78 0.84 0.86 0.85 0.69 0.88 0.83 0.61 0.60 0.76 0.74 0.73 0.66 0.63 0.56 0.58 0.49 0.49 0.49 0.36 0.32 0.30 0.25 0.31 0.27 0.20 0.34 0.22 0.24 0.21 0.22 0.19 0.29 0.34 0.33 0.39 0.43 0.43 0.46
Wind_Speed
30 29 28 27 27 26 26 26 27 26 25 24 23 22 20 18 15 14 13 12 12 12 11 10 9 7 7 7 8 8 11 14 15 15 15 17 16 16 14 12 10 9 9 6 7 9 9
31 30 29 27 26 26 25 26 25 25 23 22 21 19 17 16 14 13 11 11 11 11 11 10 10 8 9 8 10 10 11 13 13 15 15 16 15 14 11 11 10 12 7 6 6 9 9
32 30 29 27 26 25 25 25 24 22 21 20 18 16 15 14 13 12 11 10 10 11 11 11 10 9 10 12 10 9 11 12 12 14 13 13 13 12 10 11 11 10 4 5 7 9 8
34 31 30 27 26 25 24 23 22 21 19 18 16 15 14 12 12 12 11 11 11 11 11 11 10 9 10 11 10 11 13 11 12 14 13 10 11 11 9 13 8 6 5 6 7 8 6
35 32 30 27 26 24 23 22 21 19 17 16 14 12 11 12 12 12 11 11 11 10 10 11 9 9 9 10 14 13 12 11 12 13 12 10 11 11 9 8 6 5 10 7 6 9 6
36 33 30 28 26 24 22 21 19 17 15 13 11 9 9 13 14 13 13 11 10 10 11 12 9 8 8 11 15 14 12 12 12 11 10 8 8 9 7 7 9 9 9 7 9 8 6
37 33 30 27 25 23 21 19 17 14 12 11 9 9 11 14 16 15 13 10 10 10 14 13 10 9 9 10 14 16 12 11 12 11 10 7 7 9 9 8 9 7 6 8 9 8 6
38 35 31 28 25 22 20 17 15 13 11 10 10 11 15 17 16 15 12 11 11 12 12 12 11 9 9 11 12 14 13 12 12 11 7 8 9 9 9 7 6 4 5 6 6 8 6
40 36 32 28 25 22 19 16 14 12 10 10 13 15 17 17 17 15 14 12 13 11 12 11 13 12 11 13 14 13 13 13 11 10 10 10 9 8 7 4 5 5 6 7 7 6 6
42 37 33 29 25 23 19 16 14 12 11 12 17 19 19 19 17 16 14 14 13 13 12 11 11 11 11 13 12 13 11 10 9 11 12 8 6 8 6 5 5 5 6 6 8 5 7
44 39 34 30 26 23 20 17 15 13 14 16 20 21 21 21 17 17 15 14 14 12 11 12 12 12 11 11 13 10 9 8 10 10 8 7 7 7 5 5 6 7 6 7 7 7 7
45 40 36 32 28 24 21 19 17 16 17 20 22 23 24 20 18 17 14 14 13 9 9 11 12 12 10 9 9 11 8 7 8 8 6 6 7 6 6 5 6 7 6 4 5 7 7
47 42 37 33 29 26 23 21 20 19 20 23 24 26 24 21 19 16 15 14 10 10 12 12 12 12 10 8 7 9 7 6 7 7 5 4 4 5 5 5 4 5 6 5 6 6 9
47 43 39 35 31 28 26 24 23 22 24 26 27 27 24 21 18 17 16 14 10 9 11 11 11 10 9 9 6 7 7 6 5 7 7 6 3 3 4 5 5 3 6 6 7 6 7
47 44 40 36 32 29 28 26 25 25 27 29 28 26 23 21 20 18 16 12 11 10 9 12 9 8 7 6 8 7 6 7 6 7 8 7 4 4 5 4 5 3 2 3 3 3 3
48 44 40 36 33 30 29 28 28 28 31 31 28 26 24 23 21 19 16 12 9 9 9 9 8 8 9 8 7 7 7 6 7 7 9 9 6 5 4 5 3 5 4 0 2 2 3
47 44 40 36 33 31 30 30 29 32 33 32 28 25 25 24 22 19 17 13 9 8 8 6 8 7 7 9 8 8 7 6 8 7 8 8 6 7 5 4 3 1 1 2 1 0 2
47 42 39 36 33 33 31 31 31 34 35 33 29 25 26 26 22 19 18 14 9 8 5 4 5 4 8 8 7 7 9 8 7 9 9 7 8 7 6 5 3 3 2 1 0 4 3
45 41 38 35 33 33 32 31 33 36 37 33 29 25 26 27 24 21 17 12 11 8 5 5 4 4 6 8 7 7 9 9 8 8 10 9 6 6 3 4 4 4 2 1 1 2 5
44 40 37 34 33 32 32 32 34 37 37 33 29 25 25 26 24 24 19 14 11 7 6 5 5 5 6 5 5 8 9 8 8 9 9 9 7 8 8 7 6 5 5 5 4 4 6
43 38 35 34 33 31 31 32 35 38 38 33 29 26 28 27 26 24 21 14 13 9 6 5 4 5 7 6 6 7 9 9 8 9 9 9 8 7 6 5 6 7 8 8 9 9 8
41 37 34 33 31 31 31 32 35 38 38 33 29 26 26 22 28 24 20 17 15 10 8 6 6 6 7 8 9 10 11 10 10 9 10 9 9 9 8 8 9 10 11 12 12 11 14
39 36 33 32 29 30 30 31 34 39 39 33 28 25 26 24 27 25 21 18 16 12 7 7 7 5 5 7 7 7 8 9 9 10 11 10 10 9 11 10 12 12 14 13 12 12 11
38 35 32 31 28 29 29 30 34 39 39 33 27 26 25 24 26 25 21 18 16 13 10 8 7 6 7 8 7 6 5 5 6 8 11 12 11 11 12 11 12 15 14 15 14 15 15
36 33 31 29 27 28 27 29 32 37 38 32 27 25 25 24 25 23 21 18 15 12 10 9 8 8 10 6 6 7 9 9 10 10 11 13 13 12 13 14 17 16 15 14 16 18 17
36 33 31 29 27 27 26 28 31 35 36 31 25 25 23 25 24 23 20 19 17 14 11 10 8 10 8 8 7 9 11 12 12 12 12 13 14 14 14 14 17 17 16 17 16 21 18
35 32 31 28 27 26 25 27 30 33 34 28 24 25 23 23 23 23 21 20 17 15 13 13 12 11 11 10 10 10 12 12 12 13 14 13 15 16 16 19 22 21 18 17 16 20 17
34 32 30 28 27 25 24 25 28 30 30 28 23 23 22 22 22 22 21 20 18 16 15 15 12 13 12 12 12 13 13 15 13 14 15 15 15 18 17 18 24 19 18 19 21 21 23
34 32 29 27 25 24 24 23 24 27 28 27 24 22 21 20 20 20 19 19 19 19 16 16 16 14 15 12 14 13 14 15 15 17 17 18 19 19 20 21 22 22 23 25 24 25 26
Wind_Direction
257 260 266 271 273 277 282 287 289 289 288 287 287 284 279 274 268 255 251 242 236 238 230 221 215 209 189 182 175 157 152 155 164 172 175 172 173 175 181 189 197 191 182 176 163 176 188
254 257 264 268 271 275 280 285 288 288 287 287 285 281 274 269 256 244 240 229 230 223 214 206 200 196 185 183 167 155 155 162 164 168 168 176 177 184 194 203 190 182 189 190 195 187 187
251 255 261 264 267 272 279 284 286 286 286 285 282 277 270 261 240 232 224 220 214 206 201 195 190 188 190 189 172 173 166 164 167 166 164 170 184 187 191 184 168 167 195 233 189 181 183
248 251 257 260 263 269 276 280 283 283 283 281 277 273 263 242 225 212 210 207 199 192 191 192 189 190 194 190 189 178 167 167 159 168 169 162 173 172 173 165 173 180 167 154 176 167 176
244 247 252 255 259 266 272 277 280 278 279 276 270 263 249 222 206 197 193 186 186 188 189 185 186 189 197 197 184 176 173 166 165 161 166 159 153 151 158 166 182 190 173 171 178 182 168
241 243 247 251 255 261 268 273 276 272 272 266 261 247 225 197 186 181 175 175 179 186 180 174 179 179 195 175 181 178 172 170 168 170 164 157 163 172 172 168 179 179 178 192 197 188 180
237 238 242 246 249 256 262 267 267 265 264 250 240 216 191 177 171 168 167 170 172 173 175 169 168 167 161 169 177 182 177 174 172 164 170 181 168 179 172 173 177 183 201 222 219 201 171
232 233 237 240 243 248 254 258 257 253 250 231 209 189 174 166 166 165 165 165 160 156 162 178 170 165 167 159 162 173 178 175 173 179 187 168 166 165 158 165 177 171 164 154 142 162 167
227 228 231 233 236 240 244 248 245 239 229 213 191 176 169 167 164 161 162 158 152 149 148 152 152 148 144 146 146 153 157 163 167 172 173 165 176 170 166 171 172 171 177 169 165 148 157
222 224 225 227 230 232 234 236 231 223 212 196 180 173 168 162 160 160 159 153 148 145 138 154 151 150 141 143 142 149 148 154 158 160 158 160 191 178 176 183 193 192 197 182 177 197 212
217 219 220 221 222 224 227 224 217 210 199 183 175 172 168 163 161 158 154 153 151 144 136 159 158 153 144 146 153 156 150 153 158 171 169 191 175 175 181 200 195 200 199 204 211 226 235
213 214 214 215 217 219 218 214 208 201 191 181 175 172 167 169 164 162 159 156 152 138 157 155 156 157 148 148 157 162 158 150 161 158 162 181 192 192 203 200 205 202 201 223 233 233 252
209 209 209 211 212 213 210 207 201 196 187 180 175 171 171 169 167 166 160 156 148 150 154 158 160 159 158 159 153 167 170 170 174 168 188 187 201 215 200 197 214 200 205 238 251 254 240
204 205 205 207 208 208 205 202 197 192 184 178 175 173 176 174 172 168 162 156 162 164 166 162 158 162 166 169 170 173 179 184 186 183 178 178 201 200 212 192 204 190 200 204 216 225 242
200 200 201 203 204 203 200 198 195 190 182 177 174 176 177 174 173 169 164 161 171 170 172 163 161 170 184 184 181 180 193 196 196 198 180 177 189 189 174 174 174 185 157 195 171 270 257
193 195 197 199 200 199 197 195 193 189 182 178 178 178 180 178 175 171 168 177 172 171 165 167 181 191 195 196 188 188 193 205 197 181 189 184 162 171 177 150 133 149 164 72 319 218 267
191 191 193 195 196 195 195 194 192 187 183 181 180 180 183 182 179 176 177 183 181 178 180 184 188 197 203 191 187 190 196 197 192 194 175 177 170 191 171 161 173 161 137 65 100 260 219
187 188 190 192 193 193 193 192 190 186 183 182 182 183 185 184 182 184 183 183 186 183 173 172 180 195 189 182 188 195 192 192 194 190 183 186 173 174 187 209 208 194 202 212 276 269 298
184 186 189 190 190 191 191 191 189 186 184 183 183 185 186 186 186 190 191 195 189 191 194 193 186 184 182 180 177 190 187 191 191 185 186 187 186 176 214 225 233 223 252 257 295 297 269
182 184 186 187 188 190 190 190 188 186 185 184 185 186 189 189 191 189 190 198 191 195 201 195 185 169 166 172 187 186 188 195 194 190 185 185 188 192 203 215 221 235 249 259 266 285 282
179 181 183 185 186 188 188 188 187 186 185 185 188 192 190 192 194 191 191 196 192 195 203 200 202 199 193 195 203 196 195 196 201 200 199 199 202 214 225 246 255 261 256 257 261 274 278
177 179 181 182 184 186 186 187 186 185 185 187 189 190 190 193 191 192 195 201 200 207 208 213 201 218 212 206 208 209 199 208 211 212 208 219 218 233 241 265 274 267 264 268 273 277 286
176 177 179 180 182 183 184 186 186 186 186 187 191 191 191 198 192 193 202 206 209 206 223 224 202 205 221 224 207 198 205 204 211 213 219 226 225 239 252 267 274 280 265 262 273 281 281
174 175 177 178 179 181 183 185 185 186 188 188 192 193 193 199 195 198 202 206 208 211 208 220 216 217 209 186 191 203 204 212 225 235 229 228 236 246 253 269 271 270 277 268 273 284 282
173 175 175 175 177 178 180 183 184 185 187 191 194 195 197 197 199 203 204 208 207 210 218 224 238 230 197 220 228 237 249 252 254 251 249 242 240 251 254 259 276 278 268 270 275 279 278
172 173 173 173 174 176 177 179 182 184 187 190 194 196 197 193 206 203 204 207 209 213 225 228 229 212 231 236 244 237 241 245 253 252 252 251 251 252 259 262 264 274 275 275 279 286 270
172 172 172 172 173 174 175 178 180 182 182 188 195 196 198 199 207 206 211 211 213 218 223 227 229 237 242 246 251 250 254 251 250 249 253 259 262 253 260 266 276 273 272 277 280 282 275
171 171 171 171 172 173 173 176 181 185 189 193 194 197 200 204 209 212 215 215 216 222 226 231 237 249 248 252 253 255 257 256 262 259 257 253 254 260 265 272 277 267 272 269 279 283 282
170 170 171 171 172 173 174 176 179 184 190 196 200 200 201 204 208 211 215 220 226 226 231 238 240 243 244 252 256 258 263 266 266 268 266 267 260 266 260 269 276 271 275 279 281 283 284